Printer-friendly version
Follow the MPC on Twitter Follow the MPC on Facebook The MPC blog
Minor Planet Center

MPEC 2010-O07 : 2010 NG3

The following Minor Planet Electronic Circular may be linked-to from your own Web pages, but must not otherwise be redistributed electronically.

A form allowing access to any MPEC is at the bottom of this page.


Read MPEC 2010-O06 Read MPEC 2010-O08


M.P.E.C. 2010-O07                                Issued 2010 July 19, 03:20 UT

     The Minor Planet Electronic Circulars contain information on unusual
         minor planets and routine data on comets.  They are published
   on behalf of Commission 20 of the International Astronomical Union by the
          Minor Planet Center, Smithsonian Astrophysical Observatory,
                          Cambridge, MA 02138, U.S.A.

             Prepared using the Tamkin Foundation Computer Network

                              MPC@CFA.HARVARD.EDU
       URL http://www.minorplanetcenter.org/iau/mpc.html  ISSN 1523-6714

                                   2010 NG3

Observations:
     K10N03G* S2010 07 08.75733 02 01 50.38 -28 42 57.6          20   R EO007C51
     K10N03G  s2010 07 08.75733 1 + 5834.4675 +  929.0565 - 3587.5837   EO007C51
     K10N03G  S2010 07 08.88963 02 02 03.41 -28 43 27.2                 EO007C51
     K10N03G  s2010 07 08.88963 1 + 5832.2580 +  942.3584 - 3587.6118   EO007C51
     K10N03G  S2010 07 09.02193 02 02 16.30 -28 43 56.8                 EO007C51
     K10N03G  s2010 07 09.02193 1 + 5831.2283 +  956.4430 - 3586.1817   EO007C51
     K10N03G  S2010 07 09.15424 02 02 29.23 -28 44 26.7                 EO007C51
     K10N03G  s2010 07 09.15424 1 + 5829.9797 +  970.0060 - 3584.6859   EO007C51
     K10N03G  S2010 07 09.48493 02 03 01.32 -28 45 42.8                 EO007C51
     K10N03G  s2010 07 09.48493 1 + 5844.6393 + 1013.3499 - 3548.1163   EO007C51
     K10N03G  S2010 07 09.55115 02 03 07.73 -28 45 58.6                 EO007C51
     K10N03G  s2010 07 09.55115 1 + 5824.3058 + 1010.3569 - 3582.2228   EO007C51
     K10N03G  S2010 07 09.61724 02 03 14.07 -28 46 13.2                 EO007C51
     K10N03G  s2010 07 09.61724 1 + 5843.4116 + 1026.9340 - 3546.2140   EO007C51
     K10N03G  S2010 07 09.68345 02 03 20.45 -28 46 29.0                 EO007C51
     K10N03G  s2010 07 09.68345 1 + 5822.4946 + 1023.5564 - 3581.4320   EO007C51
     K10N03G  S2010 07 09.74954 02 03 26.76 -28 46 44.2                 EO007C51
     K10N03G  s2010 07 09.74954 1 + 5841.0091 + 1040.0944 - 3546.2580   EO007C51
     K10N03G  S2010 07 09.81576 02 03 33.13 -28 46 59.8                 EO007C51
     K10N03G  s2010 07 09.81576 1 + 5819.8543 + 1036.6336 - 3581.9362   EO007C51
     K10N03G  S2010 07 09.88184 02 03 39.45 -28 47 15.0                 EO007C51
     K10N03G  s2010 07 09.88184 1 + 5838.4844 + 1053.3563 - 3546.4145   EO007C51
     K10N03G  S2010 07 09.94806 02 03 45.76 -28 47 30.9                 EO007C51
     K10N03G  s2010 07 09.94806 1 + 5817.9697 + 1050.3474 - 3581.0268   EO007C51
     K10N03G  S2010 07 10.01415 02 03 52.02 -28 47 46.5                 EO007C51
     K10N03G  s2010 07 10.01415 1 + 5837.1405 + 1067.4839 - 3544.9770   EO007C51
     K10N03G  S2010 07 10.54336 02 04 42.02 -28 49 53.3                 EO007C51
     K10N03G  s2010 07 10.54336 1 + 5829.3470 + 1121.5714 - 3540.7540   EO007C51
     K10N03G 2C2010 07 15.60114602 12 01.560-29 12 55.08         19.1 R EO007568
     K10N03G 2C2010 07 15.60336102 12 01.733-29 12 55.75         19.3 R EO007568
     K10N03G `C2010 07 18.76315 02 16 00.90 -29 29 35.9          19.9 R EO007D90
     K10N03G `C2010 07 18.77553 02 16 01.76 -29 29 40.2          19.9 R EO007D90
     K10N03G `C2010 07 18.78750 02 16 02.56 -29 29 44.5          20.7 R EO007D90

Observer details:
568 Mauna Kea.  Observers D. J. Tholen, G. T. Elliott, M. Micheli.  Measurers
    D. J. Tholen, G. T. Elliott.  2.24-m University of Hawaii reflector.
D90 RAS Observatory, Moorook.  Observer K. Hills.  0.41-m f/9 Ritchey-Chretien
    + CCD.
C51 WISE.  Measurers A. Mainzer, E. Wright, J. Bauer, T. Grav, J. Dailey, J.
    Masiero, R. Cutri, R. McMillan, R. Walker.
    (http://wise.ssl.berkeley.edu/mission_sci.html)

Orbital elements:
2010 NG3                                                 Earth MOID = 0.1418 AU
Epoch 2010 July 23.0 TT = JDT 2455400.5                 MPC
M  23.06649              (2000.0)            P               Q
n   0.23846856     Peri.  193.98082     -0.23098619     +0.88427513
a   2.5754233      Node    64.03756     -0.84366615     +0.02573270
e   0.5553344      Incl.   26.83288     -0.48463678     -0.46625671
P   4.13           H   17.1           G   0.15           U   7
Residuals in seconds of arc
100708 C51  0.1-  0.1+    100709 C51  0.2+  0.3-    100715 568  0.0   0.0
100708 C51  0.3+  0.1+    100709 C51  0.2-  0.0     100715 568  0.0   0.0
100709 C51  0.6-  0.2+    100709 C51  0.2+  0.1-    100718 D90  0.1+  0.0
100709 C51  0.4-  0.2+    100709 C51  0.3+  0.2+    100718 D90  0.2+  0.0
100709 C51  0.1-  0.1-    100709 C51  0.2+  0.1-    100718 D90  0.1-  0.1-
100709 C51  0.2+  0.6-    100710 C51  0.2-  0.0
100709 C51  0.0   0.2+    100710 C51  0.4+  0.2+

Ephemeris:
2010 NG3                 a,e,i = 2.58, 0.56, 27                  q = 1.1452
Date    TT    R. A. (2000) Decl.     Delta      r     Elong.  Phase     V
2010 07 13    02 08.40   -29 00.4    1.080    1.512    92.2    42.2    19.8
2010 07 23    02 20.63   -29 55.0    1.087    1.581    97.4    39.6    19.8
2010 08 02    02 28.19   -31 07.2    1.091    1.651   103.2    36.8    19.9
2010 08 12    02 30.74   -32 33.6    1.094    1.722   109.5    33.7    19.9
2010 08 22    02 27.93   -34 05.8    1.099    1.794   116.3    30.4    19.9
2010 09 01    02 19.72   -35 31.6    1.110    1.865   123.2    26.9    19.9
2010 09 11    02 06.51   -36 36.0    1.132    1.936   129.6    23.6    19.9
2010 09 21    01 49.54   -37 02.4    1.169    2.007   134.8    20.8    20.0
2010 10 01    01 30.90   -36 40.4    1.223    2.076   137.7    18.9    20.1
2010 10 11    01 12.92   -35 28.1    1.299    2.145   137.6    18.3    20.3
2010 10 21    00 57.57   -33 32.3    1.396    2.213   134.7    18.6    20.5
2010 10 31    00 45.95   -31 05.9    1.514    2.279   129.6    19.6    20.8
2010 11 10    00 38.30   -28 21.4    1.650    2.344   123.2    20.7    21.1
2010 11 20    00 34.39   -25 29.0    1.803    2.408   116.2    21.6    21.3
2010 11 30    00 33.68   -22 35.9    1.969    2.471   108.8    22.2    21.6
2010 12 10    00 35.63   -19 46.1    2.146    2.532   101.4    22.4    21.9
2010 12 20    00 39.75   -17 01.9    2.329    2.592    94.0    22.3    22.1
2010 12 30    00 45.58   -14 24.3    2.517    2.650    86.8    21.7    22.3
2011 01 09    00 52.78   -11 53.6    2.706    2.707    79.6    20.9    22.5
2011 01 19    01 01.08   -09 29.7    2.894    2.763    72.5    19.9    22.6
2011 01 29    01 10.25   -07 12.6    3.078    2.817    65.6    18.6    22.7

Carl W. Hergenrother         (C) Copyright 2010 MPC           M.P.E.C. 2010-O07

Read MPEC 2010-O06 Read MPEC 2010-O08


MPEC number:

Enter an MPEC number in one of the following forms:

  • 1997-B01 (the full form)
  • J97B01 (the packed version of the full form)
  • B01 (the abbreviated form)

Valid HTML 4.01!